カタログに戻る

GEESAT 2-11

運用中科学LEO
NORAD 58915·PAYLOAD·🇨🇳 China

打ち上げ Feb 2, 2024 から Xichang Satellite Launch Center

Loading…

次のパス (今後24時間)

TLE

最新Source: Space-Track

元期: Sep 14, 2026, 21:30 UTC

1 58915U 24023L   26257.89601803  .00001102  00000-0  16016-3 0  9997
2 58915  50.0003 298.4522 0018211  97.1807 263.1202 14.83418726142237

AllMySatでGEESAT 2-11をリアルタイム追跡

Download on the App Store